Year,Month,Day,Hour,Minute,Value (Times are PST for temperature in C)
2009,09,01,00,00,14.30
2009,09,01,00,01,14.30
2009,09,01,00,02,14.30
2009,09,01,00,03,14.30
2009,09,01,00,04,14.30
2009,09,01,00,05,14.20
2009,09,01,00,06,14.20
2009,09,01,00,07,14.20
2009,09,01,00,08,14.20
2009,09,01,00,09,14.20
2009,09,01,00,10,14.20
2009,09,01,00,11,14.20
2009,09,01,00,12,14.20
2009,09,01,00,13,14.20
2009,09,01,00,14,14.20
2009,09,01,00,15,14.20
2009,09,01,00,16,14.20
2009,09,01,00,17,14.20
2009,09,01,00,18,14.20
2009,09,01,00,19,14.20
2009,09,01,00,20,14.20
2009,09,01,00,21,14.20
2009,09,01,00,22,14.20
2009,09,01,00,23,14.20
2009,09,01,00,24,14.20
2009,09,01,00,25,14.20
2009,09,01,00,26,14.20
2009,09,01,00,27,14.20
2009,09,01,00,28,14.20
2009,09,01,00,29,14.20
2009,09,01,00,30,14.20
2009,09,01,00,31,14.20
2009,09,01,00,32,14.20
2009,09,01,00,33,14.20
2009,09,01,00,34,14.30
2009,09,01,00,35,14.30
2009,09,01,00,36,14.30
2009,09,01,00,37,14.30
2009,09,01,00,38,14.30
2009,09,01,00,39,14.30
2009,09,01,00,40,14.30
2009,09,01,00,41,14.20
2009,09,01,00,42,14.20
2009,09,01,00,43,14.20
2009,09,01,00,44,14.10
2009,09,01,00,45,14.10
2009,09,01,00,46,14.10
2009,09,01,00,47,14.10
2009,09,01,00,48,14.10
2009,09,01,00,49,14.00
2009,09,01,00,50,14.10
2009,09,01,00,51,14.10
2009,09,01,00,52,14.10
2009,09,01,00,53,14.10
2009,09,01,00,54,14.10
2009,09,01,00,55,14.10
2009,09,01,00,56,14.10
2009,09,01,00,57,14.10
2009,09,01,00,58,14.10
2009,09,01,00,59,14.10
2009,09,01,01,00,14.10
2009,09,01,01,01,14.10
2009,09,01,01,02,14.00
2009,09,01,01,03,14.10
2009,09,01,01,04,14.10
2009,09,01,01,05,14.10
2009,09,01,01,06,14.10
2009,09,01,01,07,14.10
2009,09,01,01,08,14.10
2009,09,01,01,09,14.10
2009,09,01,01,10,14.10
2009,09,01,01,11,14.10
2009,09,01,01,12,14.10
2009,09,01,01,13,14.00
2009,09,01,01,14,14.00
2009,09,01,01,15,14.00
2009,09,01,01,16,14.00
2009,09,01,01,17,13.90
2009,09,01,01,18,13.90
2009,09,01,01,19,13.90
2009,09,01,01,20,13.90
2009,09,01,01,21,13.90
2009,09,01,01,22,13.90
2009,09,01,01,23,13.80
2009,09,01,01,24,13.80
2009,09,01,01,25,13.80
2009,09,01,01,26,13.80
2009,09,01,01,27,13.80
2009,09,01,01,28,13.80
2009,09,01,01,29,13.80
2009,09,01,01,30,13.70
2009,09,01,01,31,13.70
2009,09,01,01,32,13.70
2009,09,01,01,33,13.70
2009,09,01,01,34,13.70
2009,09,01,01,35,13.70
2009,09,01,01,36,13.70
2009,09,01,01,37,13.70
2009,09,01,01,38,13.70
2009,09,01,01,39,13.70
2009,09,01,01,40,13.70
2009,09,01,01,41,13.70
2009,09,01,01,42,13.70
2009,09,01,01,43,13.70
2009,09,01,01,44,13.60
2009,09,01,01,45,13.60
2009,09,01,01,46,13.60
2009,09,01,01,47,13.60
2009,09,01,01,48,13.60
2009,09,01,01,49,13.60
2009,09,01,01,50,13.60
2009,09,01,01,51,13.60
2009,09,01,01,52,13.60
2009,09,01,01,53,13.60
2009,09,01,01,54,13.60
2009,09,01,01,55,13.60
2009,09,01,01,56,13.60
2009,09,01,01,57,13.60
2009,09,01,01,58,13.60
2009,09,01,01,59,13.60
2009,09,01,02,00,13.60
2009,09,01,02,01,13.60
2009,09,01,02,02,13.60
2009,09,01,02,03,13.60
2009,09,01,02,04,13.60
2009,09,01,02,05,13.60
2009,09,01,02,06,13.60
2009,09,01,02,07,13.60
2009,09,01,02,08,13.60
2009,09,01,02,09,13.60
2009,09,01,02,10,13.60
2009,09,01,02,11,13.60
2009,09,01,02,12,13.60
2009,09,01,02,13,13.60
2009,09,01,02,14,13.60
2009,09,01,02,15,13.60
2009,09,01,02,16,13.60
2009,09,01,02,17,13.70
2009,09,01,02,18,13.70
2009,09,01,02,19,13.70
2009,09,01,02,20,13.70
2009,09,01,02,21,13.70
2009,09,01,02,22,13.70
2009,09,01,02,23,13.80
2009,09,01,02,24,13.80
2009,09,01,02,25,13.80
2009,09,01,02,26,13.80
2009,09,01,02,27,13.80
2009,09,01,02,28,13.80
2009,09,01,02,29,13.80
2009,09,01,02,30,13.90
2009,09,01,02,31,13.90
2009,09,01,02,32,13.90
2009,09,01,02,33,13.90
2009,09,01,02,34,13.90
2009,09,01,02,35,13.90
2009,09,01,02,36,13.90
2009,09,01,02,37,13.90
2009,09,01,02,38,13.90
2009,09,01,02,39,13.90
2009,09,01,02,40,13.90
2009,09,01,02,41,13.80
2009,09,01,02,42,13.80
2009,09,01,02,43,13.80
2009,09,01,02,44,13.90
2009,09,01,02,45,13.90
2009,09,01,02,46,13.90
2009,09,01,02,47,14.00
2009,09,01,02,48,14.00
2009,09,01,02,49,14.00
2009,09,01,02,50,13.90
2009,09,01,02,51,13.90
2009,09,01,02,52,13.90
2009,09,01,02,53,13.80
2009,09,01,02,54,13.80
2009,09,01,02,55,13.80
2009,09,01,02,56,13.80
2009,09,01,02,57,13.80
2009,09,01,02,58,13.80
2009,09,01,02,59,13.90
2009,09,01,03,00,13.90
2009,09,01,03,01,13.80
2009,09,01,03,02,13.80
2009,09,01,03,03,13.80
2009,09,01,03,04,13.80
2009,09,01,03,05,13.90
2009,09,01,03,06,13.90
2009,09,01,03,07,13.90
2009,09,01,03,08,13.90
2009,09,01,03,09,13.90
2009,09,01,03,10,14.00
2009,09,01,03,11,14.00
2009,09,01,03,12,14.00
2009,09,01,03,13,14.00
2009,09,01,03,14,14.00
2009,09,01,03,15,14.00
2009,09,01,03,16,14.00
2009,09,01,03,17,14.00
2009,09,01,03,18,14.10
2009,09,01,03,19,14.10
2009,09,01,03,20,14.10
2009,09,01,03,21,14.10
2009,09,01,03,22,14.10
2009,09,01,03,23,14.10
2009,09,01,03,24,14.10
2009,09,01,03,25,14.10
2009,09,01,03,26,14.20
2009,09,01,03,27,14.20
2009,09,01,03,28,14.20
2009,09,01,03,29,14.20
2009,09,01,03,30,14.20
2009,09,01,03,31,14.20
2009,09,01,03,32,14.10
2009,09,01,03,33,14.10
2009,09,01,03,34,14.10
2009,09,01,03,35,14.10
2009,09,01,03,36,14.00
2009,09,01,03,37,14.00
2009,09,01,03,38,14.00
2009,09,01,03,39,14.10
2009,09,01,03,40,14.10
2009,09,01,03,41,14.10
2009,09,01,03,42,14.10
2009,09,01,03,43,14.10
2009,09,01,03,44,14.20
2009,09,01,03,45,14.20
2009,09,01,03,46,14.30
2009,09,01,03,47,14.20
2009,09,01,03,48,14.20
2009,09,01,03,49,14.20
2009,09,01,03,50,14.30
2009,09,01,03,51,14.20
2009,09,01,03,52,14.30
2009,09,01,03,53,14.30
2009,09,01,03,54,14.30
2009,09,01,03,55,14.30
2009,09,01,03,56,14.30
2009,09,01,03,57,14.30
2009,09,01,03,58,14.30
2009,09,01,03,59,14.30
2009,09,01,04,00,14.30
2009,09,01,04,01,14.30
2009,09,01,04,02,14.30
2009,09,01,04,03,14.30
2009,09,01,04,04,14.30
2009,09,01,04,05,14.30
2009,09,01,04,06,14.30
2009,09,01,04,07,14.30
2009,09,01,04,08,14.40
2009,09,01,04,09,14.40
2009,09,01,04,10,14.40
2009,09,01,04,11,14.40
2009,09,01,04,12,14.40
2009,09,01,04,13,14.40
2009,09,01,04,14,14.40
2009,09,01,04,15,14.40
2009,09,01,04,16,14.40
2009,09,01,04,17,14.40
2009,09,01,04,18,14.40
2009,09,01,04,19,14.40
2009,09,01,04,20,14.40
2009,09,01,04,21,14.40
2009,09,01,04,22,14.40
2009,09,01,04,23,14.40
2009,09,01,04,24,14.40
2009,09,01,04,25,14.40
2009,09,01,04,26,14.40
2009,09,01,04,27,14.30
2009,09,01,04,28,14.30
2009,09,01,04,29,14.30
2009,09,01,04,30,14.30
2009,09,01,04,31,14.30
2009,09,01,04,32,14.30
2009,09,01,04,33,14.30
2009,09,01,04,34,14.30
2009,09,01,04,35,14.30
2009,09,01,04,36,14.30
2009,09,01,04,37,14.30
2009,09,01,04,38,14.30
2009,09,01,04,39,14.30
2009,09,01,04,40,14.30
2009,09,01,04,41,14.30
2009,09,01,04,42,14.30
2009,09,01,04,43,14.30
2009,09,01,04,44,14.30
2009,09,01,04,45,14.30
2009,09,01,04,46,14.30
2009,09,01,04,47,14.30
2009,09,01,04,48,14.30
2009,09,01,04,49,14.30
2009,09,01,04,50,14.30
2009,09,01,04,51,14.30
2009,09,01,04,52,14.40
2009,09,01,04,53,14.40
2009,09,01,04,54,14.40
2009,09,01,04,55,14.40
2009,09,01,04,56,14.40
2009,09,01,04,57,14.50
2009,09,01,04,58,14.50
2009,09,01,04,59,14.60
2009,09,01,05,00,14.60
2009,09,01,05,01,14.60
2009,09,01,05,02,14.60
2009,09,01,05,03,14.60
2009,09,01,05,04,14.60
2009,09,01,05,05,14.70
2009,09,01,05,06,14.70
2009,09,01,05,07,14.70
2009,09,01,05,08,14.70
2009,09,01,05,09,14.70
2009,09,01,05,10,14.70
2009,09,01,05,11,14.70
2009,09,01,05,12,14.70
2009,09,01,05,13,14.70
2009,09,01,05,14,14.70
2009,09,01,05,15,14.70
2009,09,01,05,16,14.70
2009,09,01,05,17,14.70
2009,09,01,05,18,14.70
2009,09,01,05,19,14.70
2009,09,01,05,20,14.70
2009,09,01,05,21,14.70
2009,09,01,05,22,14.70
2009,09,01,05,23,14.70
2009,09,01,05,24,14.70
2009,09,01,05,25,14.70
2009,09,01,05,26,14.70
2009,09,01,05,27,14.70
2009,09,01,05,28,14.70
2009,09,01,05,29,14.70
2009,09,01,05,30,14.70
2009,09,01,05,31,14.70
2009,09,01,05,32,14.70
2009,09,01,05,33,14.70
2009,09,01,05,34,14.70
2009,09,01,05,35,14.70
2009,09,01,05,36,14.70
2009,09,01,05,37,14.70
2009,09,01,05,38,14.70
2009,09,01,05,39,14.70
2009,09,01,05,40,14.70
2009,09,01,05,41,14.70
2009,09,01,05,42,14.70
2009,09,01,05,43,14.70
2009,09,01,05,44,14.70
2009,09,01,05,45,14.70
2009,09,01,05,46,14.70
2009,09,01,05,47,14.70
2009,09,01,05,48,14.70
2009,09,01,05,49,14.70
2009,09,01,05,50,14.70
2009,09,01,05,51,14.70
2009,09,01,05,52,14.70
2009,09,01,05,53,14.70
2009,09,01,05,54,14.70
2009,09,01,05,55,14.70
2009,09,01,05,56,14.70
2009,09,01,05,57,14.70
2009,09,01,05,58,14.70
2009,09,01,05,59,14.70
2009,09,01,06,00,14.70
2009,09,01,06,01,14.70
2009,09,01,06,02,14.70
2009,09,01,06,03,14.60
2009,09,01,06,04,14.60
2009,09,01,06,05,14.60
2009,09,01,06,06,14.60
2009,09,01,06,07,14.60
2009,09,01,06,08,14.60
2009,09,01,06,09,14.60
2009,09,01,06,10,14.60
2009,09,01,06,11,14.60
2009,09,01,06,12,14.60
2009,09,01,06,13,14.60
2009,09,01,06,14,14.60
2009,09,01,06,15,14.60
2009,09,01,06,16,14.60
2009,09,01,06,17,14.60
2009,09,01,06,18,14.60
2009,09,01,06,19,14.60
2009,09,01,06,20,14.50
2009,09,01,06,21,14.50
2009,09,01,06,22,14.50
2009,09,01,06,23,14.50
2009,09,01,06,24,14.50
2009,09,01,06,25,14.50
2009,09,01,06,26,14.40
2009,09,01,06,27,14.40
2009,09,01,06,28,14.40
2009,09,01,06,29,14.40
2009,09,01,06,30,14.40
2009,09,01,06,31,14.40
2009,09,01,06,32,14.40
2009,09,01,06,33,14.40
2009,09,01,06,34,14.40
2009,09,01,06,35,14.40
2009,09,01,06,36,14.40
2009,09,01,06,37,14.30
2009,09,01,06,38,14.30
2009,09,01,06,39,14.30
2009,09,01,06,40,14.30
2009,09,01,06,41,14.30
2009,09,01,06,42,14.30
2009,09,01,06,43,14.30
2009,09,01,06,44,14.30
2009,09,01,06,45,14.30
2009,09,01,06,46,14.30
2009,09,01,06,47,14.30
2009,09,01,06,48,14.30
2009,09,01,06,49,14.30
2009,09,01,06,50,14.20
2009,09,01,06,51,14.20
2009,09,01,06,52,14.20
2009,09,01,06,53,14.20
2009,09,01,06,54,14.20
2009,09,01,06,55,14.20
2009,09,01,06,56,14.10
2009,09,01,06,57,14.10
2009,09,01,06,58,14.10
2009,09,01,06,59,14.10
2009,09,01,07,00,14.10
2009,09,01,07,01,14.10
2009,09,01,07,02,14.10
2009,09,01,07,03,14.10
2009,09,01,07,04,14.00
2009,09,01,07,05,14.00
2009,09,01,07,06,13.90
2009,09,01,07,07,13.90
2009,09,01,07,08,13.90
2009,09,01,07,09,13.90
2009,09,01,07,10,13.90
2009,09,01,07,11,13.90
2009,09,01,07,12,13.90
2009,09,01,07,13,13.90
2009,09,01,07,14,13.80
2009,09,01,07,15,13.80
2009,09,01,07,16,13.80
2009,09,01,07,17,13.80
2009,09,01,07,18,13.80
2009,09,01,07,19,13.80
2009,09,01,07,20,13.90
2009,09,01,07,21,13.90
2009,09,01,07,22,13.90
2009,09,01,07,23,13.90
2009,09,01,07,24,13.90
2009,09,01,07,25,13.90
2009,09,01,07,26,13.90
2009,09,01,07,27,13.90
2009,09,01,07,28,14.00
2009,09,01,07,29,14.00
2009,09,01,07,30,14.00
2009,09,01,07,31,14.00
2009,09,01,07,32,14.10
2009,09,01,07,33,14.10
2009,09,01,07,34,14.10
2009,09,01,07,35,14.10
2009,09,01,07,36,14.10
2009,09,01,07,37,14.20
2009,09,01,07,38,14.20
2009,09,01,07,39,14.20
2009,09,01,07,40,14.20
2009,09,01,07,41,14.30
2009,09,01,07,42,14.30
2009,09,01,07,43,14.30
2009,09,01,07,44,14.30
2009,09,01,07,45,14.40
2009,09,01,07,46,14.40
2009,09,01,07,47,14.40
2009,09,01,07,48,14.40
2009,09,01,07,49,14.50
2009,09,01,07,50,14.60
2009,09,01,07,51,14.60
2009,09,01,07,52,14.70
2009,09,01,07,53,14.80
2009,09,01,07,54,14.80
2009,09,01,07,55,14.90
2009,09,01,07,56,15.00
2009,09,01,07,57,15.00
2009,09,01,07,58,15.00
2009,09,01,07,59,15.10
2009,09,01,08,00,15.30
2009,09,01,08,01,15.40
2009,09,01,08,02,15.60
2009,09,01,08,03,15.70
2009,09,01,08,04,15.80
2009,09,01,08,05,15.90
2009,09,01,08,06,16.00
2009,09,01,08,07,16.10
2009,09,01,08,08,16.20
2009,09,01,08,09,16.30
2009,09,01,08,10,16.40
2009,09,01,08,11,16.50
2009,09,01,08,12,16.60
2009,09,01,08,13,16.70
2009,09,01,08,14,16.80
2009,09,01,08,15,16.80
2009,09,01,08,16,16.80
2009,09,01,08,17,16.90
2009,09,01,08,18,16.90
2009,09,01,08,19,16.90
2009,09,01,08,20,17.00
2009,09,01,08,21,17.00
2009,09,01,08,22,17.10
2009,09,01,08,23,17.10
2009,09,01,08,24,17.20
2009,09,01,08,25,17.20
2009,09,01,08,26,17.20
2009,09,01,08,27,17.20
2009,09,01,08,28,17.20
2009,09,01,08,29,17.30
2009,09,01,08,30,17.40
2009,09,01,08,31,17.50
2009,09,01,08,32,17.60
2009,09,01,08,33,17.60
2009,09,01,08,34,17.70
2009,09,01,08,35,17.70
2009,09,01,08,36,17.70
2009,09,01,08,37,17.80
2009,09,01,08,38,17.80
2009,09,01,08,39,17.80
2009,09,01,08,40,17.70
2009,09,01,08,41,17.60
2009,09,01,08,42,17.60
2009,09,01,08,43,17.50
2009,09,01,08,44,17.50
2009,09,01,08,45,17.40
2009,09,01,08,46,17.40
2009,09,01,08,47,17.40
2009,09,01,08,48,17.40
2009,09,01,08,49,17.40
2009,09,01,08,50,17.30
2009,09,01,08,51,17.30
2009,09,01,08,52,17.30
2009,09,01,08,53,17.30
2009,09,01,08,54,17.30
2009,09,01,08,55,17.30
2009,09,01,08,56,17.30
2009,09,01,08,57,17.30
2009,09,01,08,58,17.30
2009,09,01,08,59,17.40
2009,09,01,09,00,17.40
2009,09,01,09,01,17.40
2009,09,01,09,02,17.40
2009,09,01,09,03,17.50
2009,09,01,09,04,17.50
2009,09,01,09,05,17.50
2009,09,01,09,06,17.60
2009,09,01,09,07,17.70
2009,09,01,09,08,17.70
2009,09,01,09,09,17.80
2009,09,01,09,10,17.80
2009,09,01,09,11,17.90
2009,09,01,09,12,17.90
2009,09,01,09,13,17.90
2009,09,01,09,14,17.90
2009,09,01,09,15,17.90
2009,09,01,09,16,17.90
2009,09,01,09,17,18.00
2009,09,01,09,18,18.00
2009,09,01,09,19,18.00
2009,09,01,09,20,18.00
2009,09,01,09,21,18.00
2009,09,01,09,22,18.00
2009,09,01,09,23,18.00
2009,09,01,09,24,18.00
2009,09,01,09,25,17.90
2009,09,01,09,26,17.90
2009,09,01,09,27,17.90
2009,09,01,09,28,17.90
2009,09,01,09,29,18.00
2009,09,01,09,30,18.00
2009,09,01,09,31,18.00
2009,09,01,09,32,18.00
2009,09,01,09,33,17.90
2009,09,01,09,34,17.90
2009,09,01,09,35,18.00
2009,09,01,09,36,18.00
2009,09,01,09,37,18.00
2009,09,01,09,38,18.10
2009,09,01,09,39,18.10
2009,09,01,09,40,18.20
2009,09,01,09,41,18.30
2009,09,01,09,42,18.30
2009,09,01,09,43,18.40
2009,09,01,09,44,18.40
2009,09,01,09,45,18.50
2009,09,01,09,46,18.50
2009,09,01,09,47,18.50
2009,09,01,09,48,18.50
2009,09,01,09,49,18.50
2009,09,01,09,50,18.40
2009,09,01,09,51,18.30
2009,09,01,09,52,18.20
2009,09,01,09,53,18.20
2009,09,01,09,54,18.20
2009,09,01,09,55,18.20
2009,09,01,09,56,18.10
2009,09,01,09,57,18.00
2009,09,01,09,58,17.90
2009,09,01,09,59,17.80
2009,09,01,10,00,17.70
2009,09,01,10,01,17.70
2009,09,01,10,02,17.70
2009,09,01,10,03,17.70
2009,09,01,10,04,17.70
2009,09,01,10,05,17.70
2009,09,01,10,06,17.70
2009,09,01,10,07,17.60
2009,09,01,10,08,17.60
2009,09,01,10,09,17.50
2009,09,01,10,10,17.40
2009,09,01,10,11,17.40
2009,09,01,10,12,17.40
2009,09,01,10,13,17.40
2009,09,01,10,14,17.40
2009,09,01,10,15,17.40
2009,09,01,10,16,17.40
2009,09,01,10,17,17.40
2009,09,01,10,18,17.40
2009,09,01,10,19,17.40
2009,09,01,10,20,17.40
2009,09,01,10,21,17.40
2009,09,01,10,22,17.40
2009,09,01,10,23,17.40
2009,09,01,10,24,17.40
2009,09,01,10,25,17.50
2009,09,01,10,26,17.50
2009,09,01,10,27,17.60
2009,09,01,10,28,17.70
2009,09,01,10,29,17.70
2009,09,01,10,30,17.80
2009,09,01,10,31,17.90
2009,09,01,10,32,17.90
2009,09,01,10,33,17.90
2009,09,01,10,34,18.00
2009,09,01,10,35,18.10
2009,09,01,10,36,18.10
2009,09,01,10,37,18.20
2009,09,01,10,38,18.20
2009,09,01,10,39,18.20
2009,09,01,10,40,18.30
2009,09,01,10,41,18.30
2009,09,01,10,42,18.40
2009,09,01,10,43,18.30
2009,09,01,10,44,18.30
2009,09,01,10,45,18.30
2009,09,01,10,46,18.20
2009,09,01,10,47,18.10
2009,09,01,10,48,18.10
2009,09,01,10,49,18.00
2009,09,01,10,50,18.00
2009,09,01,10,51,17.90
2009,09,01,10,52,17.80
2009,09,01,10,53,17.80
2009,09,01,10,54,17.70
2009,09,01,10,55,17.70
2009,09,01,10,56,17.60
2009,09,01,10,57,17.60
2009,09,01,10,58,17.60
2009,09,01,10,59,17.60
2009,09,01,11,00,17.60
2009,09,01,11,01,17.60
2009,09,01,11,02,17.60
2009,09,01,11,03,17.60
2009,09,01,11,04,17.60
2009,09,01,11,05,17.60
2009,09,01,11,06,17.60
2009,09,01,11,07,17.60
2009,09,01,11,08,17.60
2009,09,01,11,09,17.60
2009,09,01,11,10,17.60
2009,09,01,11,11,17.60
2009,09,01,11,12,17.70
2009,09,01,11,13,17.70
2009,09,01,11,14,17.80
2009,09,01,11,15,17.80
2009,09,01,11,16,17.90
2009,09,01,11,17,17.90
2009,09,01,11,18,18.00
2009,09,01,11,19,18.00
2009,09,01,11,20,18.00
2009,09,01,11,21,18.10
2009,09,01,11,22,18.20
2009,09,01,11,23,18.20
2009,09,01,11,24,18.40
2009,09,01,11,25,18.50
2009,09,01,11,26,18.60
2009,09,01,11,27,18.60
2009,09,01,11,28,18.70
2009,09,01,11,29,18.70
2009,09,01,11,30,18.60
2009,09,01,11,31,18.60
2009,09,01,11,32,18.60
2009,09,01,11,33,18.50
2009,09,01,11,34,18.50
2009,09,01,11,35,18.60
2009,09,01,11,36,18.60
2009,09,01,11,37,18.60
2009,09,01,11,38,18.60
2009,09,01,11,39,18.50
2009,09,01,11,40,18.50
2009,09,01,11,41,18.40
2009,09,01,11,42,18.40
2009,09,01,11,43,18.30
2009,09,01,11,44,18.30
2009,09,01,11,45,18.30
2009,09,01,11,46,18.30
2009,09,01,11,47,18.40
2009,09,01,11,48,18.40
2009,09,01,11,49,18.50
2009,09,01,11,50,18.50
2009,09,01,11,51,18.60
2009,09,01,11,52,18.70
2009,09,01,11,53,18.70
2009,09,01,11,54,18.70
2009,09,01,11,55,18.70
2009,09,01,11,56,18.60
2009,09,01,11,57,18.50
2009,09,01,11,58,18.40
2009,09,01,11,59,18.30
2009,09,01,12,00,18.30
2009,09,01,12,01,18.30
2009,09,01,12,02,18.40
2009,09,01,12,03,18.30
2009,09,01,12,04,18.30
2009,09,01,12,05,18.30
2009,09,01,12,06,18.30
2009,09,01,12,07,18.40
2009,09,01,12,08,18.40
2009,09,01,12,09,18.40
2009,09,01,12,10,18.40
2009,09,01,12,11,18.40
2009,09,01,12,12,18.40
2009,09,01,12,13,18.40
2009,09,01,12,14,18.30
2009,09,01,12,15,18.30
2009,09,01,12,16,18.30
2009,09,01,12,17,18.40
2009,09,01,12,18,18.40
2009,09,01,12,19,18.50
2009,09,01,12,20,18.60
2009,09,01,12,21,18.70
2009,09,01,12,22,18.70
2009,09,01,12,23,18.80
2009,09,01,12,24,18.80
2009,09,01,12,25,18.90
2009,09,01,12,26,18.90
2009,09,01,12,27,19.00
2009,09,01,12,28,19.10
2009,09,01,12,29,19.10
2009,09,01,12,30,19.10
2009,09,01,12,31,19.10
2009,09,01,12,32,19.10
2009,09,01,12,33,19.10
2009,09,01,12,34,19.20
2009,09,01,12,35,19.20
2009,09,01,12,36,19.10
2009,09,01,12,37,19.10
2009,09,01,12,38,19.10
2009,09,01,12,39,19.10
2009,09,01,12,40,19.00
2009,09,01,12,41,19.00
2009,09,01,12,42,18.90
2009,09,01,12,43,19.00
2009,09,01,12,44,19.00
2009,09,01,12,45,19.00
2009,09,01,12,46,18.90
2009,09,01,12,47,18.80
2009,09,01,12,48,18.70
2009,09,01,12,49,18.60
2009,09,01,12,50,18.60
2009,09,01,12,51,18.60
2009,09,01,12,52,18.60
2009,09,01,12,53,18.60
2009,09,01,12,54,18.50
2009,09,01,12,55,18.50
2009,09,01,12,56,18.60
2009,09,01,12,57,18.60
2009,09,01,12,58,18.70
2009,09,01,12,59,18.70
2009,09,01,13,00,18.80
2009,09,01,13,01,18.80
2009,09,01,13,02,18.90
2009,09,01,13,03,19.00
2009,09,01,13,04,19.20
2009,09,01,13,05,19.20
2009,09,01,13,06,19.30
2009,09,01,13,07,19.40
2009,09,01,13,08,19.50
2009,09,01,13,09,19.50
2009,09,01,13,10,19.40
2009,09,01,13,11,19.30
2009,09,01,13,12,19.20
2009,09,01,13,13,19.10
2009,09,01,13,14,19.10
2009,09,01,13,15,19.10
2009,09,01,13,16,19.10
2009,09,01,13,17,19.20
2009,09,01,13,18,19.20
2009,09,01,13,19,19.30
2009,09,01,13,20,19.30
2009,09,01,13,21,19.30
2009,09,01,13,22,19.40
2009,09,01,13,23,19.40
2009,09,01,13,24,19.40
2009,09,01,13,25,19.50
2009,09,01,13,26,19.50
2009,09,01,13,27,19.60
2009,09,01,13,28,19.70
2009,09,01,13,29,19.80
2009,09,01,13,30,19.90
2009,09,01,13,31,20.00
2009,09,01,13,32,20.10
2009,09,01,13,33,20.20
2009,09,01,13,34,20.30
2009,09,01,13,35,20.30
2009,09,01,13,36,20.30
2009,09,01,13,37,20.40
2009,09,01,13,38,20.40
2009,09,01,13,39,20.30
2009,09,01,13,40,20.20
2009,09,01,13,41,20.10
2009,09,01,13,42,19.90
2009,09,01,13,43,19.80
2009,09,01,13,44,19.70
2009,09,01,13,45,19.60
2009,09,01,13,46,19.40
2009,09,01,13,47,19.30
2009,09,01,13,48,19.30
2009,09,01,13,49,19.20
2009,09,01,13,50,19.20
2009,09,01,13,51,19.20
2009,09,01,13,52,19.20
2009,09,01,13,53,19.20
2009,09,01,13,54,19.20
2009,09,01,13,55,19.20
2009,09,01,13,56,19.20
2009,09,01,13,57,19.10
2009,09,01,13,58,19.10
2009,09,01,13,59,19.20
2009,09,01,14,00,19.20
2009,09,01,14,01,19.30
2009,09,01,14,02,19.40
2009,09,01,14,03,19.50
2009,09,01,14,04,19.40
2009,09,01,14,05,19.40
2009,09,01,14,06,19.40
2009,09,01,14,07,19.40
2009,09,01,14,08,19.30
2009,09,01,14,09,19.20
2009,09,01,14,10,19.20
2009,09,01,14,11,19.20
2009,09,01,14,12,19.20
2009,09,01,14,13,19.20
2009,09,01,14,14,19.20
2009,09,01,14,15,19.20
2009,09,01,14,16,19.20
2009,09,01,14,17,19.20
2009,09,01,14,18,19.20
2009,09,01,14,19,19.20
2009,09,01,14,20,19.20
2009,09,01,14,21,19.20
2009,09,01,14,22,19.20
2009,09,01,14,23,19.20
2009,09,01,14,24,19.20
2009,09,01,14,25,19.20
2009,09,01,14,26,19.20
2009,09,01,14,27,19.20
2009,09,01,14,28,19.20
2009,09,01,14,29,19.10
2009,09,01,14,30,19.10
2009,09,01,14,31,19.10
2009,09,01,14,32,19.10
2009,09,01,14,33,19.10
2009,09,01,14,34,19.10
2009,09,01,14,35,19.20
2009,09,01,14,36,19.30
2009,09,01,14,37,19.40
2009,09,01,14,38,19.50
2009,09,01,14,39,19.50
2009,09,01,14,40,19.50
2009,09,01,14,41,19.50
2009,09,01,14,42,19.50
2009,09,01,14,43,19.50
2009,09,01,14,44,19.60
2009,09,01,14,45,19.60
2009,09,01,14,46,19.60
2009,09,01,14,47,19.60
2009,09,01,14,48,19.60
2009,09,01,14,49,19.70
2009,09,01,14,50,19.70
2009,09,01,14,51,19.80
2009,09,01,14,52,19.80
2009,09,01,14,53,19.80
2009,09,01,14,54,19.70
2009,09,01,14,55,19.70
2009,09,01,14,56,19.70
2009,09,01,14,57,19.60
2009,09,01,14,58,19.60
2009,09,01,14,59,19.60
2009,09,01,15,00,19.60
2009,09,01,15,01,19.60
2009,09,01,15,02,19.60
2009,09,01,15,03,19.70
2009,09,01,15,04,19.70
2009,09,01,15,05,19.80
2009,09,01,15,06,19.90
2009,09,01,15,07,19.90
2009,09,01,15,08,20.00
2009,09,01,15,09,20.10
2009,09,01,15,10,20.20
2009,09,01,15,11,20.20
2009,09,01,15,12,20.30
2009,09,01,15,13,20.30
2009,09,01,15,14,20.30
2009,09,01,15,15,20.30
2009,09,01,15,16,20.30
2009,09,01,15,17,20.30
2009,09,01,15,18,20.40
2009,09,01,15,19,20.50
2009,09,01,15,20,20.60
2009,09,01,15,21,20.60
2009,09,01,15,22,20.70
2009,09,01,15,23,20.70
2009,09,01,15,24,20.80
2009,09,01,15,25,20.80
2009,09,01,15,26,20.80
2009,09,01,15,27,20.80
2009,09,01,15,28,20.60
2009,09,01,15,29,20.40
2009,09,01,15,30,20.20
2009,09,01,15,31,20.10
2009,09,01,15,32,20.00
2009,09,01,15,33,19.90
2009,09,01,15,34,19.90
2009,09,01,15,35,19.80
2009,09,01,15,36,19.80
2009,09,01,15,37,19.70
2009,09,01,15,38,19.50
2009,09,01,15,39,19.40
2009,09,01,15,40,19.40
2009,09,01,15,41,19.40
2009,09,01,15,42,19.40
2009,09,01,15,43,19.40
2009,09,01,15,44,19.50
2009,09,01,15,45,19.40
2009,09,01,15,46,19.40
2009,09,01,15,47,19.30
2009,09,01,15,48,19.20
2009,09,01,15,49,19.10
2009,09,01,15,50,19.00
2009,09,01,15,51,18.90
2009,09,01,15,52,18.90
2009,09,01,15,53,18.80
2009,09,01,15,54,18.80
2009,09,01,15,55,18.70
2009,09,01,15,56,18.70
2009,09,01,15,57,18.60
2009,09,01,15,58,18.50
2009,09,01,15,59,18.40
2009,09,01,16,00,18.30
2009,09,01,16,01,18.20
2009,09,01,16,02,18.20
2009,09,01,16,03,18.00
2009,09,01,16,04,18.00
2009,09,01,16,05,17.90
2009,09,01,16,06,17.90
2009,09,01,16,07,17.90
2009,09,01,16,08,18.00
2009,09,01,16,09,18.00
2009,09,01,16,10,18.10
2009,09,01,16,11,18.10
2009,09,01,16,12,18.10
2009,09,01,16,13,18.20
2009,09,01,16,14,18.20
2009,09,01,16,15,18.20
2009,09,01,16,16,18.20
2009,09,01,16,17,18.30
2009,09,01,16,18,18.30
2009,09,01,16,19,18.30
2009,09,01,16,20,18.30
2009,09,01,16,21,18.40
2009,09,01,16,22,18.40
2009,09,01,16,23,18.40
2009,09,01,16,24,18.40
2009,09,01,16,25,18.40
2009,09,01,16,26,18.40
2009,09,01,16,27,18.40
2009,09,01,16,28,18.40
2009,09,01,16,29,18.30
2009,09,01,16,30,18.30
2009,09,01,16,31,18.30
2009,09,01,16,32,18.30
2009,09,01,16,33,18.30
2009,09,01,16,34,18.30
2009,09,01,16,35,18.30
2009,09,01,16,36,18.30
2009,09,01,16,37,18.30
2009,09,01,16,38,18.30
2009,09,01,16,39,18.30
2009,09,01,16,40,18.30
2009,09,01,16,41,18.20
2009,09,01,16,42,18.20
2009,09,01,16,43,18.20
2009,09,01,16,44,18.20
2009,09,01,16,45,18.10
2009,09,01,16,46,18.10
2009,09,01,16,47,18.10
2009,09,01,16,48,18.00
2009,09,01,16,49,17.90
2009,09,01,16,50,17.90
2009,09,01,16,51,17.80
2009,09,01,16,52,17.80
2009,09,01,16,53,17.70
2009,09,01,16,54,17.60
2009,09,01,16,55,17.50
2009,09,01,16,56,17.50
2009,09,01,16,57,17.40
2009,09,01,16,58,17.30
2009,09,01,16,59,17.20
2009,09,01,17,00,17.20
2009,09,01,17,01,17.10
2009,09,01,17,02,17.10
2009,09,01,17,03,17.20
2009,09,01,17,04,17.20
2009,09,01,17,05,17.20
2009,09,01,17,06,17.30
2009,09,01,17,07,17.40
2009,09,01,17,08,17.50
2009,09,01,17,09,17.70
2009,09,01,17,10,17.80
2009,09,01,17,11,17.90
2009,09,01,17,12,18.10
2009,09,01,17,13,18.20
2009,09,01,17,14,18.40
2009,09,01,17,15,18.60
2009,09,01,17,16,18.70
2009,09,01,17,17,18.80
2009,09,01,17,18,18.90
2009,09,01,17,19,19.00